Regional Weather Roundup
Issued by NWS

Home | Current Version | Previous Version | Graphics & Text | Print | Product List | Glossary On
Versions: 1 2 3 4 5 6 7 8 9 10 11 12 13 14 15 16 17 18 19 20 21 22 23 24 25 26 27 28 29 30 31 32 33 34 35 36 37 38 39 40 41 42 43 44 45 46 47 48 49 50
000
ASUS43 KOAX 050102
RWRNE

WEATHER ROUNDUP FOR NEBRASKA
NATIONAL WEATHER SERVICE OMAHA NE
800 PM CDT TUE AUG 04 2015

NOTES: SATELLITE DATA IS BEING USED TO AUGMENT CLOUD COVER ABOVE
       12000 FEET.
       "FAIR" INDICATES FEW OR NO CLOUDS BELOW 12,000 FEET WITH NO
       SIGNIFICANT WEATHER AND/OR OBSTRUCTIONS TO VISIBILITY.

  * THESE STATIONS DO NOT REPORT WEATHER SUCH AS RAIN...SNOW OR FOG.

NEZ001>004-019>022-054>056-050200-
NEBRASKA PANHANDLE

CITY           SKY/WX    TMP DP  RH WIND       PRES   REMARKS
SCOTTSBLUFF    PTSUNNY   70  67  90 S5        30.00S
ALLIANCE       PTSUNNY   71  61  70 SW7       29.99S
CHADRON        MOSUNNY   75  61  61 SW6       29.97R
KIMBALL        PTSUNNY   72  56  56 SE3       30.04S
SIDNEY         PTSUNNY   73  60  63 S7        30.03F
$$

NEZ057>060-069>072-079>082-050200-
SOUTHWEST NEBRASKA

CITY           SKY/WX    TMP DP  RH WIND       PRES   REMARKS
NORTH PLATTE   CLOUDY    71  63  75 CALM      29.98R
IMPERIAL       MOCLDY    73  61  65 W5        29.97S
LEXINGTON      CLOUDY    66  64  94 NE8       29.96R
MCCOOK         CLOUDY    65  63  93 CALM      29.95R
OGALLALA       MOCLDY    70  63  78 SE3       29.98S
$$

NEZ005>010-023>029-035>040-094-050200-
NORTH CENTRAL NEBRASKA

CITY           SKY/WX    TMP DP  RH WIND       PRES   REMARKS
AINSWORTH      CLOUDY    73  66  76 E7        29.98S
BROKEN BOW     CLOUDY    68  65  90 SE12      29.95R
O`NEILL        CLOUDY    74  65  74 SE9       29.97S
ORD            CLOUDY    67  62  84 S8        29.95R
THEDFORD       CLOUDY    73  64  71 E7        29.98S
$$

NEZ041-046>049-061>064-073>077-083>087-050200-
SOUTH CENTRAL NEBRASKA

CITY           SKY/WX    TMP DP  RH WIND       PRES   REMARKS
GRAND ISLAND   CLOUDY    67  64  90 CALM      29.92F
AURORA         CLOUDY    68  65  90 CALM      29.93R
HASTINGS       LGT RAIN  65  63  93 SW5       29.90F FOG
HEBRON         CLOUDY    74  66  76 SW7       29.94F
HOLDREGE       CLOUDY    64  62  91 S3        29.96R
KEARNEY *      CLOUDY    64  61  88 E8        29.93F
YORK           CLOUDY    70  64  83 NE3       29.96R
$$

NEZ011>018-030>034-042>045-050200-
NORTHEAST NEBRASKA

CITY           SKY/WX    TMP DP  RH WIND       PRES   REMARKS
NORFOLK        CLOUDY    73  65  75 E8        29.95F
ALBION         CLOUDY    73  66  79 SE5       29.95R
BLAIR          PTCLDY    72  65  77 E7        29.96R
COLUMBUS *     CLOUDY    73  64  73 E8        29.94S
FREMONT        MOCLDY    74  66  76 E7        29.96R
TEKAMAH        MOCLDY    74  66  76 E5        29.95F
WAYNE          CLOUDY    73  64  72 E3        29.97F
$$

NEZ050>053-065>068-078-088>093-050200-
SOUTHEAST NEBRASKA

CITY           SKY/WX    TMP DP  RH WIND       PRES   REMARKS
LINCOLN        CLOUDY    75  69  81 NE7       29.96R
OMAHA EPPLEY   MOCLDY    75  66  73 E9        29.96S
BEATRICE       CLOUDY    74  68  82 S9        29.92F
FALLS CITY     CLOUDY    75  68  78 S9G21     29.93F
NEBRASKA CITY  MOCLDY    77  68  73 SW5       29.96R
PLATTSMOUTH    MOCLDY    72  68  86 E7        29.96R
$$

NEZ044-045-051>053-067-050200-
OMAHA AREA

CITY           SKY/WX    TMP DP  RH WIND       PRES   REMARKS
OMAHA EPPLEY   MOCLDY    75  66  73 E9        29.96S
BLAIR          PTCLDY    72  65  77 E7        29.96R
FREMONT        MOCLDY    74  66  76 E7        29.96R
MILLARD        MOCLDY    76  69  78 E5        29.95R
OFFUTT AFB     MOCLDY    74  68  81 E8        29.96R
PLATTSMOUTH    MOCLDY    72  68  86 E7        29.96R
WAHOO          CLOUDY    74  69  83 E8        29.95R
$$


USA.gov is the U.S. government's official web portal to all federal, state and local government web resources and services.